Location: Boncourt
(49.6160°N, 3.9448°E)
Time: 07:58:50
(UTC+00:00)

USA 81 - Visible Passes

Search period start: 24 September 2023 00:00
Search period end: 04 October 2023 00:00
Orbit: 782 x 789 km, 85.0° (Epoch: 18 September)

Date Brightness Start Highest point End Pass type
(mag) Time Alt. Az. Time Alt. Az. Time Alt. Az.
24 Sep 4.0 18:52:37 10° S 18:57:51 74° E 19:03:07 10° N visible
24 Sep 6.7 20:35:59 10° WSW 20:39:33 18° WNW 20:43:10 10° NNW visible
25 Sep 4.3 18:21:49 10° SSE 18:26:48 46° E 18:31:49 10° NNE visible
25 Sep 6.1 20:03:38 10° SW 20:08:06 28° WNW 20:12:36 10° NNW visible
26 Sep 6.9 04:48:17 10° NNE 04:52:20 22° ENE 04:56:21 10° ESE visible
26 Sep 5.3 19:31:46 10° SSW 19:36:45 43° WNW 19:41:46 10° N visible
27 Sep 7.2 04:18:02 10° NNE 04:20:48 14° ENE 04:23:33 10° E visible
27 Sep 4.4 19:00:16 10° SSW 19:05:30 69° W 19:10:47 10° N visible
27 Sep 7.2 20:46:00 10° W 20:47:40 11° WNW 20:49:20 10° NW visible
28 Sep 4.0 18:29:07 10° S 18:34:21 76° E 18:39:38 10° N visible
28 Sep 6.8 20:12:34 10° WSW 20:16:05 18° WNW 20:19:37 10° NNW visible
29 Sep 6.1 04:55:27 10° N 05:00:15 34° ENE 05:05:01 10° SE visible
29 Sep 4.3 17:58:18 10° SSE 18:03:18 47° E 18:08:21 10° NNE visible
29 Sep 6.2 19:40:10 10° SW 19:44:37 27° WNW 19:49:05 10° NNW visible
30 Sep 6.8 04:24:45 10° NNE 04:28:50 22° ENE 04:32:55 10° ESE visible
30 Sep 5.4 19:08:17 10° SSW 19:13:15 42° WNW 19:18:16 10° N visible
01 Oct 7.2 03:54:27 10° NNE 03:57:19 14° ENE 04:00:11 10° E visible
01 Oct 4.5 18:36:46 10° SSW 18:42:00 67° W 18:47:16 10° N visible
01 Oct 7.4 20:22:42 10° WNW 20:24:11 11° WNW 20:25:40 10° NW visible
02 Oct 5.0 05:02:51 10° N 05:08:03 55° E 05:13:14 10° SSE visible
02 Oct 4.0 18:05:36 10° S 18:10:50 78° E 18:16:08 10° N visible
02 Oct 6.9 19:49:08 10° WSW 19:52:36 17° WNW 19:56:03 10° NNW visible
03 Oct 5.9 04:31:56 10° N 04:36:46 35° ENE 04:41:34 10° SE visible
03 Oct 6.3 19:16:43 10° SW 19:21:07 26° WNW 19:25:33 10° NNW visible
